Location: Nena
(32.3271°N, 96.8558°W)
Time: 03:32:46
(UTC+00:00)

ISS - Visible Passes

Search period start: 01 February 2023 00:00
Search period end: 11 February 2023 00:00
Orbit: 412 x 419 km, 51.6° (Epoch: 01 February)

Date Brightness Start Highest point End Pass type
(mag) Time Alt. Az. Time Alt. Az. Time Alt. Az.
02 Feb -2.3 01:19:58 10° NNW 01:22:06 24° NNE 01:22:06 24° NNE visible
03 Feb -1.9 00:31:48 10° N 00:34:01 16° NNE 00:36:09 10° ENE visible
03 Feb -1.3 02:07:40 10° WNW 02:09:05 22° WNW 02:09:05 22° WNW visible
04 Feb -3.9 01:18:51 10° NW 01:22:13 86° NE 01:23:24 37° SE visible
05 Feb -3.3 00:30:13 10° NNW 00:33:27 42° NE 00:36:39 10° ESE visible
05 Feb -0.7 02:08:14 10° W 02:09:50 13° SW 02:11:01 11° SSW visible
06 Feb -1.4 01:18:25 10° WNW 01:21:13 25° SW 01:24:01 10° S visible
07 Feb -2.8 00:29:15 10° NW 00:32:31 51° SW 00:35:47 10° SSE visible
09 Feb -0.5 00:29:21 10° W 00:31:18 15° SW 00:33:15 10° SSW visible
